Coolangatta Observation History
Time Wind Speed Temp Pressure Rel. Hum Rain
24/10:00am NNW 7-10 kts 20.2°c 1022.9 hPa 74% 0.0mm
24/09:30am NW 6-8 kts 19.1°c 1022.4 hPa 76% 0.0mm
24/09:00am WNW 8-11 kts 18.4°c 1023.0 hPa 82% 4.4mm
24/08:30am WNW 9-11 kts 17.9°c 1022.5 hPa 83% 4.4mm
24/08:00am WNW 7-10 kts 17.3°c 1022.6 hPa 88% 4.4mm
24/07:30am W 5-7 kts 16.8°c 1022.6 hPa 93% 4.4mm
24/07:00am W 5-7 kts 16.1°c 1023.0 hPa 95% 4.4mm
24/06:30am WNW 6-8 kts 16.0°c 1022.4 hPa 96% 4.4mm
24/06:26am NW 6-8 kts 16.0°c 1022.3 hPa 96% 4.4mm
24/06:05am NW 5-7 kts 15.9°c 1021.9 hPa 96% 4.4mm
24/06:00am NW 4-5 kts 15.8°c 1022.1 hPa 97% 4.4mm
24/05:30am W 5-8 kts 15.4°c 1021.9 hPa 96% 4.4mm
24/05:00am WNW 6 kts 15.3°c 1021.9 hPa 97% 4.4mm
24/04:30am WNW 4-5 kts 15.2°c 1021.6 hPa 96% 4.4mm
24/04:01am NNW 6-9 kts 15.6°c 1021.9 hPa 96% 4.2mm
24/04:00am NNW 7-9 kts 15.6°c 1021.9 hPa 96% 4.2mm
24/03:44am NNW 8-9 kts 16.0°c 1022.7 hPa 97% 4.2mm
24/03:30am W 5-6 kts 15.9°c 1022.7 hPa 98% 4.2mm
24/03:13am SW 4-5 kts 15.7°c 1022.9 hPa 98% 4.2mm
24/03:00am S 3-5 kts 15.7°c 1022.9 hPa 98% 4.2mm
24/02:30am SSE 5-6 kts 15.7°c 1023.4 hPa 97% 4.0mm
24/02:17am SW 4-7 kts 15.8°c 1023.5 hPa 97% 3.6mm
24/02:15am SW 3-5 kts 15.8°c 1023.5 hPa 97% 3.6mm
24/02:03am SW 4-5 kts 15.8°c 1023.5 hPa 97% 3.4mm
24/02:00am SW 4-5 kts 15.8°c 1023.5 hPa 97% 3.4mm
24/01:30am WSW 3-5 kts 15.5°c 1023.5 hPa 97% 3.2mm
24/01:00am WSW 6-7 kts 15.5°c 1023.9 hPa 97% 3.2mm
24/12:30am SW 4-6 kts 15.1°c 1024.2 hPa 95% 3.2mm
24/12:00am WSW 3-5 kts 15.5°c 1024.5 hPa 95% 3.2mm
Time Wind Speed Temp Pressure Rel. Hum Rain
23/11:30pm WNW 6-8 kts 15.8°c 1024.9 hPa 95% 3.2mm
23/11:00pm SW 4-5 kts 15.7°c 1025.0 hPa 96% 3.2mm
23/10:30pm SW 6-7 kts 15.6°c 1025.1 hPa 95% 3.2mm
23/10:00pm SW 6-8 kts 16.1°c 1025.2 hPa 94% 2.8mm
23/09:32pm S 7-11 kts 16.6°c 1025.4 hPa 91% 2.8mm
23/09:30pm SSE 6-9 kts 16.4°c 1025.5 hPa 91% 2.8mm
23/09:09pm WSW 5-8 kts 16.6°c 1025.4 hPa 87% 1.0mm
23/09:00pm SW 8-10 kts 16.7°c 1025.1 hPa 86% 0.2mm
23/08:30pm N 5-6 kts 16.8°c 1025.0 hPa 81% 0.2mm
23/08:00pm NE 7-10 kts 19.4°c 1024.7 hPa 71% 0.2mm
23/07:30pm NE 8-11 kts 19.9°c 1024.4 hPa 68% 0.2mm
23/07:00pm NE 6-8 kts 19.5°c 1024.0 hPa 69% 0.2mm
23/06:30pm ENE 9-13 kts 19.3°c 1024.0 hPa 71% 0.2mm
23/06:00pm NE 8-11 kts 19.8°c 1024.3 hPa 65% 0.2mm
23/05:30pm NE 7-9 kts 19.5°c 1024.4 hPa 69% 0.2mm
23/05:00pm ENE 4-6 kts 19.1°c 1024.3 hPa 71% 0.2mm
23/04:30pm E 4-6 kts 18.9°c 1024.4 hPa 72% 0.2mm
23/04:00pm ENE 4-6 kts 19.4°c 1024.6 hPa 70% 0.2mm
23/03:30pm ENE 5-8 kts 19.6°c 1024.6 hPa 68% 0.2mm
23/03:00pm E 7-10 kts 20.3°c 1024.8 hPa 67% 0.2mm
23/02:30pm ENE 5-7 kts 20.2°c 1025.1 hPa 66% 0.2mm
23/02:00pm NE 5-7 kts 20.6°c 1025.1 hPa 65% 0.2mm
23/01:30pm NE 6-8 kts 20.4°c 1025.5 hPa 68% 0.2mm
23/01:00pm ENE 7-9 kts 20.5°c 1025.7 hPa 65% 0.2mm
23/12:30pm ENE 7-11 kts 20.9°c 1026.4 hPa 61% 0.2mm
23/12:00pm ENE 5-8 kts 20.9°c 1027.0 hPa 61% 0.2mm
23/11:30am SSE 4-6 kts 20.3°c 1027.5 hPa 70% 0.0mm
23/11:00am S 8-10 kts 18.7°c 1028.1 hPa 77% 0.0mm
23/10:30am SSE 9-12 kts 18.1°c 1028.6 hPa 79% 0.0mm
23/10:00am SE 6-8 kts 18.0°c 1028.9 hPa 79% 0.0mm
23/09:30am SE 6-9 kts 17.3°c 1028.9 hPa 86% 0.0mm
23/09:00am SSW 4-6 kts 16.9°c 1028.7 hPa 87% n/a
23/08:30am SSW 4-6 kts 16.4°c 1028.4 hPa 89% n/a
23/08:00am SSW 4-6 kts 14.7°c 1028.3 hPa 94% n/a
23/07:30am S 3-4 kts 13.8°c 1027.9 hPa 94% n/a
23/07:00am SSW 5-6 kts 14.2°c 1027.9 hPa 93% n/a
23/06:30am SSW 5-7 kts 14.4°c 1027.7 hPa 94% n/a
23/06:00am SSW 5-6 kts 14.2°c 1027.1 hPa 93% n/a
23/05:30am SSW 4-6 kts 14.0°c 1027.2 hPa 92% n/a
23/05:00am SW 6-8 kts 15.0°c 1027.4 hPa 91% n/a
23/04:57am SW 6-8 kts 15.1°c 1027.5 hPa 91% n/a
23/04:34am SW 8-12 kts 15.2°c 1028.0 hPa 91% n/a
23/04:30am SW 8-12 kts 15.3°c 1027.8 hPa 90% n/a
23/04:01am SSW 7-9 kts 14.8°c 1026.6 hPa 93% n/a
23/04:00am SSW 6-9 kts 14.8°c 1026.6 hPa 93% n/a
23/03:50am S 5-7 kts 14.4°c 1026.5 hPa 94% n/a
23/03:30am SSW 5-7 kts 14.2°c 1026.5 hPa 92% n/a
23/03:22am S 6-7 kts 14.3°c 1026.8 hPa 92% n/a
23/03:01am SSE 7-10 kts 14.4°c 1027.5 hPa 90% n/a
23/03:00am SSE 7-10 kts 14.4°c 1027.5 hPa 90% 0.0mm
23/02:30am S 7-11 kts 15.4°c 1027.1 hPa 84% n/a
23/02:00am S 7-10 kts 15.2°c 1026.7 hPa 84% n/a
23/01:30am S 7-9 kts 14.9°c 1027.1 hPa 84% n/a
23/01:00am SSW 7-11 kts 15.4°c 1027.7 hPa 82% n/a
23/12:30am S 7-11 kts 15.5°c 1028.3 hPa 83% n/a
23/12:00am SSW 8-12 kts 15.1°c 1028.3 hPa 84% n/a
Time Wind Speed Temp Pressure Rel. Hum Rain
22/11:30pm SSW 8-11 kts 15.0°c 1028.6 hPa 84% n/a
22/11:00pm SSW 7-11 kts 15.0°c 1028.7 hPa 85% n/a
22/10:30pm SSW 8-11 kts 15.1°c 1029.3 hPa 87% n/a
22/10:00pm SSW 8-12 kts 15.5°c 1029.1 hPa 84% n/a
22/09:30pm SSW 6-9 kts 16.1°c 1028.8 hPa 81% n/a
22/09:00pm SSW 10-14 kts 16.1°c 1028.8 hPa 80% 0.0mm
22/08:30pm SSW 10-14 kts 15.9°c 1028.7 hPa 82% n/a
22/08:00pm S 7-9 kts 15.7°c 1028.8 hPa 84% n/a
22/07:30pm SSW 7-11 kts 15.5°c 1028.7 hPa 83% n/a
22/07:00pm S 7-9 kts 15.5°c 1028.8 hPa 84% n/a
22/06:30pm S 11-15 kts 15.8°c 1028.3 hPa 84% n/a
22/06:00pm S 8-11 kts 17.0°c 1028.2 hPa 72% n/a
22/05:30pm SSW 8-11 kts 17.0°c 1027.8 hPa 71% n/a
22/05:00pm S 8-11 kts 17.7°c 1027.4 hPa 69% n/a
22/04:30pm S 11-15 kts 18.0°c 1027.1 hPa 67% n/a
22/04:00pm S 14-19 kts 18.4°c 1026.8 hPa 63% n/a
22/03:30pm S 10-17 kts 20.4°c 1026.2 hPa 55% n/a
22/03:00pm S 11-15 kts 20.5°c 1026.1 hPa 55% n/a
22/02:30pm S 12-18 kts 20.4°c 1025.9 hPa 55% n/a
22/02:00pm S 13-21 kts 20.6°c 1026.0 hPa 55% n/a
22/12:00pm S 15-23 kts 20.6°c 1027.1 hPa 50% n/a
22/11:30am S 12-18 kts 20.7°c 1027.7 hPa 52% 0.0mm
22/11:00am SSW 11-17 kts 20.0°c 1028.4 hPa 56% 0.0mm
22/10:30am SSW 12-17 kts 19.5°c 1028.4 hPa 59% 0.0mm
22/10:00am SSW 11-18 kts 18.9°c 1028.6 hPa 59% 0.0mm
22/09:30am SSW 10-16 kts 17.4°c 1028.3 hPa 64% 0.0mm
22/09:00am SSW 10-18 kts 17.0°c 1028.1 hPa 66% 0.0mm
22/08:30am SSW 11-17 kts 16.3°c 1027.4 hPa 69% 0.0mm
22/08:00am SSW 10-17 kts 15.6°c 1026.7 hPa 70% 0.0mm
22/07:30am SSW 10-15 kts 15.1°c 1026.4 hPa 73% 0.0mm
22/07:00am SSW 11-16 kts 14.9°c 1026.3 hPa 75% 0.0mm
22/06:30am SSW 10-15 kts 14.8°c 1026.1 hPa 75% 0.0mm
22/06:00am SSW 11-17 kts 14.9°c 1025.8 hPa 75% 0.0mm
22/05:30am SSW 10-18 kts 14.7°c 1025.5 hPa 75% 0.0mm
22/05:00am SSW 11-16 kts 14.9°c 1025.2 hPa 75% 0.0mm
22/04:30am SSW 10-15 kts 14.8°c 1024.8 hPa 76% 0.0mm
22/04:00am SSW 10-13 kts 14.7°c 1024.8 hPa 77% 0.0mm
22/03:30am SW 9-15 kts 14.7°c 1024.8 hPa 78% 0.0mm
22/03:00am SSW 11-18 kts 14.8°c 1024.9 hPa 78% 0.0mm
22/02:30am SSW 8-13 kts 14.9°c 1024.7 hPa 79% 0.0mm
22/02:00am SSW 7-10 kts 14.7°c 1024.7 hPa 79% 0.0mm
22/01:30am SW 9-14 kts 14.8°c 1024.5 hPa 79% 0.0mm
22/01:00am SSW 10-16 kts 14.9°c 1024.5 hPa 79% 0.0mm
22/12:30am SSW 10-14 kts 14.9°c 1024.5 hPa 79% 0.0mm
22/12:00am SSW 9-15 kts 15.0°c 1024.6 hPa 79% 0.0mm